Location: *
(2.5500°S, 65.9667°W)
Time: 05:44:10
(UTC+00:00)

Tiros 1 despin weight - Pass Details

Date: 15 April 2024
Orbit: 578 x 621 km, 48.2° (Epoch: 25 May)

Event Time Altitude Azimuth Distance (km) Brightness Sun altitude
Rises 04:51:03 0° 300° (WNW) 2,869 - -80.0°
Maximum altitude 04:57:27 27° 230° (SW) 1,181 - -78.9°
Drops below altitude 10° 05:01:14 10° 172° (S) 1,944 - -78.1°
Sets 05:03:48 0° 160° (SSE) 2,840 - -77.6°
